Location: ???????
(55.2903°N, 39.1554°E)
Time: 23:01:54
(UTC+00:00)

Cosmos 1943 Rocket - Pass Details

Date: 14 April 2024
Orbit: 810 x 845 km, 71.0° (Epoch: 23 May)

Event Time Altitude Azimuth Distance (km) Brightness Sun altitude
Rises 01:12:02 0° 324° (NW) 3,404 5.3 -9.7°
Reaches altitude 10° 01:14:36 10° 317° (NW) 2,469 4.5 -9.4°
Maximum altitude 01:19:52 41° 249° (WSW) 1,202 2.6 -8.8°
Drops below altitude 10° 01:25:08 10° 181° (S) 2,462 4.3 -8.1°
Sets 01:27:41 0° 174° (S) 3,393 5.1 -7.8°
